Regional Weather Roundup
Issued by NWS Green Bay, WI

Home | Current Version | Previous Version | Graphics & Text | Print | Product List | Glossary Off
Versions: 1 2 3 4 5 6 7 8 9 10 11 12 13 14 15 16 17 18 19 20 21 22 23 24 25 26 27 28 29 30 31 32 33 34 35 36 37 38 39 40 41 42 43 44 45 46 47 48 49 50

000
ASUS43 KGRB 270211
RWRGRB

NORTH-CENTRAL AND NORTHEAST WISCONSIN REGIONAL WEATHER ROUNDUP
NATIONAL WEATHER SERVICE GREEN BAY WI
900 PM CDT MON SEP 26 2016

WIZ005-009-010>012-018-019-270300-
NORTH CENTRAL WISCONSIN

CITY           SKY/WX    TMP DP  RH WIND       PRES   REMARKS
IRONWOOD       LGT RAIN  49  47  93 W16       29.68F
MANITOWISH WTR DRIZZLE   47  47 100 W14       29.71S
ARBOR VITAE    RAIN      52  49  92 W8G18     29.72F
EAGLE RIVER    DRIZZLE   48  46  95 W16G25    29.70F
LAND O LAKES   LGT RAIN  48  46  93 W9G18     29.70S
RHINELANDER    LGT RAIN  49  46  90 W13       29.75F
PHILLIPS       DRIZZLE   49  46  87 W3        29.76S
ANTIGO         CLOUDY    50  42  74 CALM      29.76S
TOMAHAWK       DRIZZLE   50  42  74 W6        29.77S
MERRILL        CLOUDY    53  43  69 W8        29.77F
$$

WIZ013-073-270300-
NORTHEAST WISCONSIN

CITY           SKY/WX    TMP DP  RH WIND       PRES   REMARKS
IRON MOUNTAIN  CLOUDY    50  44  80 W14G29    29.67F
MARINETTE      CLOUDY    54  44  69 VRB5      29.75S
OCONTO         CLOUDY    54  42  65 SW6       29.76S
$$

WIZ017-030-035>037-045-270300-
CENTRAL WISCONSIN

CITY           SKY/WX    TMP DP  RH WIND       PRES   REMARKS
MEDFORD        CLOUDY    52  40  63 W7        29.78F
WAUSAU         CLOUDY    54  40  59 W13       29.77F
MOSINEE        MOCLDY    52  43  71 SW9       29.80F
MARSHFIELD     PTCLDY    53  40  61 W9        29.81S
WISC RAPIDS    PTCLDY    52  42  69 W7        29.83F
STEVENS POINT  MOCLDY    52  39  61 SW8       29.81F
WAUPACA        PTCLDY    56  40  56 SW9       29.81F
SHAWANO        CLOUDY    57  41  54 W9        29.77F
CLINTONVILLE   NOT AVBL
WAUTOMA        PTCLDY    52  41  66 SW7       29.84F
$$

WIZ038-039-048-051-270300-
FOX VALLEY

CITY           SKY/WX    TMP DP  RH WIND       PRES   REMARKS
NWS GREEN BAY  CLOUDY    56  42  59 SW8       29.79F
APPLETON       MOCLDY    55  37  50 SW10      29.81S
OSHKOSH        PTCLDY    55  40  56 SW3       29.82F
FOND DU LAC    CLEAR     53  40  61 SW6       29.85F
$$

WIZ022-050-052-270300-
EAST CENTRAL WISCONSIN

CITY           SKY/WX    TMP DP  RH WIND       PRES   REMARKS
EPHRAIM        CLOUDY    56  43  61 W12G24    29.73S
WASHINGTON ISL MOCLDY    55  44  65 W20G30    29.72S
STURGEON BAY   CLOUDY    58  42  55 SW14      29.76F
MANITOWOC      CLOUDY    58  39  49 MISG      29.81F
SHEBOYGAN      PTCLDY    53  41  63 SW9       29.84S
$$

LMZ563-521-522-541>543-270300-
LAKESHORE

STATION/POSITION TIME  TEMP    WIND        PRES    VSBY  WAVE
                       AIR SEA DIR/SP/G                  HT/PER
                 (UTC) (F)     (DEG/KT/KT) (MB)    (MI)  (FT/S)
SHEBOYGAN LKSHOR 0200   58     240/ 10/ 12 1010.1F
KEWAUNEE LKSHORE 0100   58     250/  7/ 10 1008.6S
NORTHPORT PIER   0100   57     270/ 10/ 23 1006.8S
N MID LAKE BUOY  0150   58 67  260/ 29/ 37 1004.7F         7/ 6
CHAMBERS ISLAND  0100   57     220/ 10/ 20 1006.4F
MENOMINEE LKSHOR 0100   56     230/ 11/ 13 1006.6F
$$




USA.gov is the U.S. government's official web portal to all federal, state and local government web resources and services.